Location: *
(33.8649°S, 62.1526°E)
Time: 16:37:31
(UTC+00:00)

Hubble Space Telescope - Visible Passes

Search period start: 30 September 2022 00:00
Search period end: 10 October 2022 00:00
Orbit: 531 x 535 km, 28.5° (Epoch: 29 September)

Date Brightness Start Highest point End Pass type
(mag) Time Alt. Az. Time Alt. Az. Time Alt. Az.
30 Sep 2.1 00:45:28 10° NW 00:49:05 30° N 00:52:44 10° ENE visible
30 Sep 3.7 22:58:40 10° ENE 22:58:40 10° ENE 22:58:46 10° ENE visible
01 Oct 1.9 00:33:54 15° NW 00:36:48 33° N 00:40:33 10° ENE visible
02 Oct 1.7 00:22:18 20° NW 00:24:31 35° N 00:28:19 10° ENE visible
03 Oct 1.6 00:10:40 27° NW 00:12:13 37° N 00:16:05 10° ENE visible
03 Oct 1.5 23:59:03 34° NNW 23:59:56 39° N 00:03:49 10° ENE visible
04 Oct 1.4 23:47:26 39° N 23:47:38 39° N 23:51:31 10° ENE visible
05 Oct 1.6 23:35:50 37° NNE 23:35:50 37° NNE 23:39:13 10° ENE visible
06 Oct 2.1 23:24:17 30° NE 23:24:17 30° NE 23:26:53 10° ENE visible
07 Oct 2.7 23:12:49 21° NE 23:12:49 21° NE 23:14:31 10° ENE visible
08 Oct 2.5 00:48:24 10° WNW 00:51:21 19° NNW 00:54:18 10° NNE visible
08 Oct 3.3 23:01:25 14° NE 23:01:25 14° NE 23:02:07 10° NE visible
09 Oct 2.6 00:36:39 11° WNW 00:38:59 16° NNW 00:41:33 10° NNE visible
